STARLINK-11485, 62229

Orbit data source: Space-Track

STARLINK-11485, 62229 is a payload satellite owned by SpaceX/Seattle (US) in LEO that was launched on Thu, 05 Dec 2024 UTC via an FALCON 9 launch vehicle from the Air Force Western Test Range (AFWTR). Payload-class satellites include a variety of spacecraft equipped with specific instruments for various scientific and technological missions. These include communications satellites like Starlink; space stations such as the ISS; scientific satellites like the Hubble; Earth observation satellites from companies like Planet Labs, Umbra, and HawkEye 360; GPS; miniature CubeSats for education and research; and military/defense satellites.

Loading next visibility...
Identifier
62229, 2024-231M
Orbit
LEO
Country
Flag of USUS
Related business
Manufacturer
SpaceX/Seattle
Mission
Operational Commercial Communications
Bus & Motor
STARLINK V2MD, Unknown motor
Mass
960 kg wet, ~910 kg dry
Launch date (UTC)
2024-12-05 (1 year ago)
Launch vehicle
FALCON 9
Launch site
Air Force Western Test Range (AFWTR)
Object type
Payload
Rocket body
Debris
Shape & HBR
Box + 2 Pan, 18.1 m
Radar Cross Section
36.964 m², Large (>1 m²)

Expand to show TLE details & history
Last TLE update: 19 hours ago

TLE from 19 hours ago
0 STARLINK-11485
1 62229U 24231M   25354.93554828  .00125586  00000-0  10233-2 0  9994
2 62229  53.1582 129.3922 0001219  51.5874 308.5253 15.69770244 61040
Epoch: 2025-12-20T22:27Z
TLE epoch observation values (Epoch: 2025-12-20T22:27:11.371Z)
Latitude
-0.00004°
Longitude
62.83958°
Altitude
359.958 km
Speed
7.695 km/s
True Right ascension
08h 37m 34s
True Declination
0° 00' 00"
Sunlit
Object was in full shadow at epoch
Visualization orbit readout
Latitude
Unknown
Longitude
Unknown
Altitude
Unknown
Speed
Unknown
Apparent Right ascension
Unknown
Apparent Declination
Unknown
Sunlit
N/A
Visualization observer readout
Local Sidereal Time
16:01:24
Azimuth
Unknown
Elevation
Unknown
Doppler factor
Unknown
Orbital elements
Apogee altitude
360.637 km
Perigee altitude
358.994 km
Semi-major axis
6,737.952 km
Eccentricity
0.00012
Inclination
53.1582°
RAAN
129.3922°
Arg. of periapsis
51.5874°
True anomaly
308.51437°
Mean anomaly
308.5253°
Eccentric anomaly
308.51984°
Mean motion
3.9242 °/min
Orbital period
91.74 mins
BSTAR
0.0010233
Loading maneuver chart data...
Computing Atmospheric mass density...
Loading historical data...
Loading historical data...
Loading historical data...
Loading historical data...
Loading historical data...
Loading historical data...
Loading historical data...

Documentation

Showing up to 5 results
|